Time,TemperatureF,DewpointF,PressureIn,WindDirection,WindDirectionDegrees,WindSpeedMPH,WindSpeedGustMPH,Humidity,HourlyPrecipIn,Conditions,Clouds,dailyrainin,SoftwareType,DateUTC
2013-04-13 00:13:00,39.0,34.0,29.95,WSW,244,4.0,8.0,83,0.00,,,0.00,weatherlink.com 1.10,2013-04-13 05:13:00,
2013-04-13 00:28:00,39.1,35.0,29.95,West,272,8.0,13.0,84,0.00,,,0.00,weatherlink.com 1.10,2013-04-13 05:28:00,
2013-04-13 00:43:00,38.9,35.0,29.95,WNW,286,4.0,11.0,86,0.00,,,0.00,weatherlink.com 1.10,2013-04-13 05:43:00,
2013-04-13 00:58:00,38.7,35.0,29.95,West,265,4.0,9.0,87,0.00,,,0.00,weatherlink.com 1.10,2013-04-13 05:58:00,
2013-04-13 01:13:00,38.6,35.0,29.95,SW,234,6.0,11.0,88,0.00,,,0.00,weatherlink.com 1.10,2013-04-13 06:13:00,
2013-04-13 01:28:00,38.4,36.0,29.95,WSW,256,4.0,10.0,89,0.00,,,0.00,weatherlink.com 1.10,2013-04-13 06:28:00,
2013-04-13 01:43:00,38.3,36.0,29.95,WSW,243,10.0,10.0,90,0.00,,,0.00,weatherlink.com 1.10,2013-04-13 06:43:00,
2013-04-13 01:58:00,38.2,35.0,29.95,WNW,293,6.0,11.0,89,0.00,,,0.00,weatherlink.com 1.10,2013-04-13 06:58:00,
2013-04-13 02:28:00,38.2,35.0,29.95,West,268,13.0,15.0,87,0.00,,,0.00,weatherlink.com 1.10,2013-04-13 07:28:00,
2013-04-13 02:43:00,38.2,34.0,29.95,WSW,257,7.0,12.0,85,0.00,,,0.00,weatherlink.com 1.10,2013-04-13 07:43:00,
2013-04-13 02:58:00,38.1,34.0,29.95,WSW,253,4.0,13.0,84,0.00,,,0.00,weatherlink.com 1.10,2013-04-13 07:58:00,
2013-04-13 03:13:00,38.0,33.0,29.95,WSW,253,5.0,9.0,83,0.00,,,0.00,weatherlink.com 1.10,2013-04-13 08:13:00,
2013-04-13 03:28:00,37.9,33.0,29.95,WNW,283,3.0,11.0,82,0.00,,,0.00,weatherlink.com 1.10,2013-04-13 08:28:00,
2013-04-13 03:43:00,37.8,33.0,29.95,WNW,286,9.0,12.0,82,0.00,,,0.00,weatherlink.com 1.10,2013-04-13 08:43:00,
2013-04-13 03:58:00,37.6,33.0,29.95,West,272,4.0,12.0,82,0.00,,,0.00,weatherlink.com 1.10,2013-04-13 08:58:00,
2013-04-13 04:13:00,37.5,33.0,29.95,NW,305,4.0,12.0,82,0.00,,,0.00,weatherlink.com 1.10,2013-04-13 09:13:00,
2013-04-13 04:28:00,37.3,33.0,29.95,West,274,4.0,16.0,83,0.00,,,0.00,weatherlink.com 1.10,2013-04-13 09:28:00,
2013-04-13 04:43:00,37.1,33.0,29.95,West,260,8.0,11.0,85,0.00,,,0.00,weatherlink.com 1.10,2013-04-13 09:43:00,
2013-04-13 04:58:00,36.8,33.0,29.95,West,266,6.0,12.0,87,0.00,,,0.00,weatherlink.com 1.10,2013-04-13 09:58:00,
2013-04-13 05:13:00,36.4,34.0,29.95,West,273,5.0,9.0,89,0.00,,,0.00,weatherlink.com 1.10,2013-04-13 10:13:00,
2013-04-13 05:28:00,36.0,33.0,29.95,WSW,251,4.0,11.0,89,0.00,,,0.00,weatherlink.com 1.10,2013-04-13 10:28:00,
2013-04-13 05:43:00,36.1,33.0,29.95,West,261,3.0,9.0,88,0.00,,,0.00,weatherlink.com 1.10,2013-04-13 10:43:00,
2013-04-13 06:13:00,36.2,33.0,29.95,SW,229,3.0,8.0,89,0.00,,,0.00,weatherlink.com 1.10,2013-04-13 11:13:00,
2013-04-13 06:28:00,36.1,34.0,29.96,NNW,338,4.0,8.0,90,0.00,,,0.00,weatherlink.com 1.10,2013-04-13 11:28:00,
2013-04-13 06:43:00,36.1,34.0,29.95,WSW,251,3.0,8.0,91,0.00,,,0.00,weatherlink.com 1.10,2013-04-13 11:43:00,
2013-04-13 06:58:00,36.2,34.0,29.96,WSW,247,3.0,13.0,92,0.00,,,0.00,weatherlink.com 1.10,2013-04-13 11:58:00,
2013-04-13 07:13:00,36.3,34.0,29.96,WNW,299,7.0,11.0,91,0.00,,,0.00,weatherlink.com 1.10,2013-04-13 12:13:00,
2013-04-13 07:28:00,36.4,34.0,29.97,West,259,5.0,12.0,90,0.00,,,0.00,weatherlink.com 1.10,2013-04-13 12:28:00,
2013-04-13 07:43:00,36.1,33.0,29.97,West,277,12.0,17.0,89,0.00,,,0.00,weatherlink.com 1.10,2013-04-13 12:43:00,
2013-04-13 07:58:00,35.7,33.0,29.97,WSW,249,11.0,18.0,89,0.00,,,0.00,weatherlink.com 1.10,2013-04-13 12:58:00,
2013-04-13 08:13:00,35.8,32.0,29.97,West,264,6.0,16.0,87,0.00,,,0.00,weatherlink.com 1.10,2013-04-13 13:13:00,
2013-04-13 08:59:00,36.8,32.0,29.98,NNW,330,7.0,15.0,82,0.00,,,0.00,weatherlink.com 1.10,2013-04-13 13:59:00,
2013-04-13 09:14:00,37.2,32.0,29.98,WSW,251,4.0,17.0,80,0.00,,,0.00,weatherlink.com 1.10,2013-04-13 14:14:00,
2013-04-13 09:29:00,37.0,31.0,29.99,West,265,7.0,20.0,78,0.00,,,0.00,weatherlink.com 1.10,2013-04-13 14:29:00,
2013-04-13 09:44:00,37.4,30.0,29.99,WNW,286,12.0,19.0,76,0.00,,,0.00,weatherlink.com 1.10,2013-04-13 14:44:00,
2013-04-13 09:59:00,37.4,30.0,30.00,NW,306,13.0,18.0,74,0.00,,,0.00,weatherlink.com 1.10,2013-04-13 14:59:00,
2013-04-13 10:29:00,36.7,30.0,30.01,NW,320,4.0,17.0,78,0.00,,,0.00,weatherlink.com 1.10,2013-04-13 15:29:00,
2013-04-13 10:44:00,37.2,31.0,30.01,WNW,282,4.0,19.0,77,0.00,,,0.00,weatherlink.com 1.10,2013-04-13 15:44:00,
2013-04-13 10:59:00,39.0,31.0,30.01,WSW,251,6.0,16.0,73,0.00,,,0.00,weatherlink.com 1.10,2013-04-13 15:59:00,
2013-04-13 11:29:00,37.9,30.0,30.02,WNW,282,8.0,20.0,74,0.00,,,0.00,weatherlink.com 1.10,2013-04-13 16:29:00,
2013-04-13 11:59:00,38.1,29.0,30.03,West,272,13.0,20.0,71,0.00,,,0.00,weatherlink.com 1.10,2013-04-13 16:59:00,
2013-04-13 12:14:00,39.2,30.0,30.03,West,278,7.0,16.0,70,0.00,,,0.00,weatherlink.com 1.10,2013-04-13 17:14:00,
2013-04-13 12:29:00,38.9,30.0,30.03,WNW,291,11.0,24.0,70,0.00,,,0.00,weatherlink.com 1.10,2013-04-13 17:29:00,
2013-04-13 12:44:00,40.1,29.0,30.04,WNW,283,13.0,18.0,66,0.00,,,0.00,weatherlink.com 1.10,2013-04-13 17:44:00,
2013-04-13 13:14:00,39.9,30.0,30.04,WNW,282,8.0,24.0,67,0.00,,,0.00,weatherlink.com 1.10,2013-04-13 18:14:00,
2013-04-13 13:29:00,41.0,30.0,30.04,WNW,284,16.0,22.0,65,0.00,,,0.00,weatherlink.com 1.10,2013-04-13 18:29:00,
2013-04-13 13:44:00,40.7,32.0,30.04,West,279,13.0,14.0,70,0.00,,,0.00,weatherlink.com 1.10,2013-04-13 18:44:00,
2013-04-13 13:59:00,41.7,31.0,30.04,West,280,14.0,20.0,67,0.00,,,0.00,weatherlink.com 1.10,2013-04-13 18:59:00,
2013-04-13 14:14:00,41.8,29.0,30.04,WNW,299,14.0,22.0,62,0.00,,,0.00,weatherlink.com 1.10,2013-04-13 19:14:00,
2013-04-13 14:29:00,42.3,32.0,30.04,SW,224,8.0,18.0,66,0.00,,,0.00,weatherlink.com 1.10,2013-04-13 19:29:00,
2013-04-13 14:44:00,43.2,32.0,30.04,WNW,299,6.0,23.0,65,0.00,,,0.00,weatherlink.com 1.10,2013-04-13 19:44:00,
2013-04-13 14:59:00,42.5,30.0,30.04,WNW,303,11.0,20.0,61,0.00,,,0.00,weatherlink.com 1.10,2013-04-13 19:59:00,
2013-04-13 15:14:00,42.6,31.0,30.04,WSW,253,9.0,20.0,63,0.00,,,0.00,weatherlink.com 1.10,2013-04-13 20:14:00,
2013-04-13 15:29:00,43.1,31.0,30.04,WNW,293,12.0,17.0,62,0.00,,,0.00,weatherlink.com 1.10,2013-04-13 20:29:00,
2013-04-13 15:44:00,44.0,30.0,30.04,WNW,293,16.0,23.0,58,0.00,,,0.00,weatherlink.com 1.10,2013-04-13 20:44:00,
2013-04-13 15:59:00,44.6,30.0,30.04,West,271,13.0,18.0,58,0.00,,,0.00,weatherlink.com 1.10,2013-04-13 20:59:00,
2013-04-13 16:14:00,44.6,31.0,30.04,West,261,9.0,20.0,59,0.00,,,0.00,weatherlink.com 1.10,2013-04-13 21:14:00,
2013-04-13 16:29:00,44.5,31.0,30.03,West,259,9.0,15.0,59,0.00,,,0.00,weatherlink.com 1.10,2013-04-13 21:29:00,
2013-04-13 16:44:00,45.8,32.0,30.03,West,259,4.0,13.0,59,0.00,,,0.00,weatherlink.com 1.10,2013-04-13 21:44:00,
2013-04-13 16:59:00,45.6,33.0,30.03,SW,216,4.0,16.0,61,0.00,,,0.00,weatherlink.com 1.10,2013-04-13 21:59:00,
2013-04-13 17:14:00,46.3,32.0,30.03,WNW,302,8.0,14.0,59,0.00,,,0.00,weatherlink.com 1.10,2013-04-13 22:14:00,
2013-04-13 17:29:00,45.8,32.0,30.04,SW,236,8.0,14.0,58,0.00,,,0.00,weatherlink.com 1.10,2013-04-13 22:29:00,
2013-04-13 17:44:00,46.2,32.0,30.04,WNW,282,6.0,19.0,57,0.00,,,0.00,weatherlink.com 1.10,2013-04-13 22:44:00,
2013-04-13 17:59:00,45.5,31.0,30.04,SW,226,5.0,15.0,58,0.00,,,0.00,weatherlink.com 1.10,2013-04-13 22:59:00,
2013-04-13 18:14:00,45.5,31.0,30.04,West,278,10.0,15.0,58,0.00,,,0.00,weatherlink.com 1.10,2013-04-13 23:14:00,
2013-04-13 18:29:00,45.2,31.0,30.04,WNW,294,9.0,13.0,58,0.00,,,0.00,weatherlink.com 1.10,2013-04-13 23:29:00,
2013-04-13 18:44:00,44.9,31.0,30.04,West,266,7.0,19.0,59,0.00,,,0.00,weatherlink.com 1.10,2013-04-13 23:44:00,
2013-04-13 18:59:00,44.6,31.0,30.04,WNW,289,7.0,12.0,60,0.00,,,0.00,weatherlink.com 1.10,2013-04-13 23:59:00,
2013-04-13 19:14:00,44.4,32.0,30.04,West,276,2.0,9.0,61,0.00,,,0.00,weatherlink.com 1.10,2013-04-14 00:14:00,
2013-04-13 19:29:00,43.8,32.0,30.04,West,266,4.0,7.0,63,0.00,,,0.00,weatherlink.com 1.10,2013-04-14 00:29:00,
2013-04-13 19:44:00,43.3,33.0,30.05,West,261,2.0,4.0,66,0.00,,,0.00,weatherlink.com 1.10,2013-04-14 00:44:00,
2013-04-13 19:59:00,43.2,32.0,30.05,WSW,252,1.0,5.0,66,0.00,,,0.00,weatherlink.com 1.10,2013-04-14 00:59:00,
2013-04-13 20:14:00,42.5,33.0,30.05,WSW,252,0.0,4.0,68,0.00,,,0.00,weatherlink.com 1.10,2013-04-14 01:14:00,
2013-04-13 20:29:00,41.3,32.0,30.05,WSW,252,0.0,1.0,70,0.00,,,0.00,weatherlink.com 1.10,2013-04-14 01:29:00,
2013-04-13 20:45:00,39.9,32.0,30.06,WSW,252,0.0,1.0,73,0.00,,,0.00,weatherlink.com 1.10,2013-04-14 01:45:00,
2013-04-13 21:00:00,39.0,32.0,30.05,WSW,252,0.0,0.0,76,0.00,,,0.00,weatherlink.com 1.10,2013-04-14 02:00:00,
2013-04-13 21:15:00,37.0,31.0,30.05,WSW,252,1.0,1.0,80,0.00,,,0.00,weatherlink.com 1.10,2013-04-14 02:15:00,
2013-04-13 21:30:00,36.0,32.0,30.06,WSW,247,0.0,3.0,85,0.00,,,0.00,weatherlink.com 1.10,2013-04-14 02:30:00,
2013-04-13 21:45:00,36.8,32.0,30.06,WSW,247,0.0,1.0,83,0.00,,,0.00,weatherlink.com 1.10,2013-04-14 02:45:00,
2013-04-13 22:00:00,37.1,33.0,30.06,WSW,247,0.0,1.0,84,0.00,,,0.00,weatherlink.com 1.10,2013-04-14 03:00:00,
2013-04-13 22:15:00,37.4,33.0,30.06,WSW,247,0.0,0.0,84,0.00,,,0.00,weatherlink.com 1.10,2013-04-14 03:15:00,
2013-04-13 22:29:00,36.4,33.0,30.07,WSW,247,0.0,2.0,86,0.00,,,0.00,weatherlink.com 1.10,2013-04-14 03:29:00,
2013-04-13 22:45:00,37.7,33.0,30.06,WSW,247,0.0,2.0,84,0.00,,,0.00,weatherlink.com 1.10,2013-04-14 03:45:00,
2013-04-13 23:00:00,37.8,33.0,30.07,WSW,247,0.0,0.0,84,0.00,,,0.00,weatherlink.com 1.10,2013-04-14 04:00:00,
2013-04-13 23:15:00,37.5,34.0,30.07,WSW,247,1.0,2.0,86,0.00,,,0.00,weatherlink.com 1.10,2013-04-14 04:15:00,
2013-04-13 23:30:00,37.4,34.0,30.07,WSW,247,2.0,3.0,86,0.00,,,0.00,weatherlink.com 1.10,2013-04-14 04:30:00,
2013-04-13 23:45:00,37.6,34.0,30.07,WSW,247,1.0,1.0,87,0.00,,,0.00,weatherlink.com 1.10,2013-04-14 04:45:00,